SCP
0 0 0 0 0 0 0 0 0 0 0 0 0 0 0 0 0 0 0 0 0 0 0 0 0 0 0 0 0 0 0 0 0 0 0 0 0 0 0 0 0 0 0
0 0 0 0 0 0 0 0 0 0 0 0 0 0 0 0 0 0 0 0 0 0 0 0 0 0 0 0 0 0 0 0 0 0 0 0 0 0 0 0 0 0 0
0 0 0 0 0 0 0 0 0 0 0 0 0 0 0 0 0 0 0 0 0 0 0 0 0 0 0 0 0 0 0 0 0 0 0 0 0 0 0 0 0 0 0
0 0 0 0 0 0 0 0 0 0 0 0 0 0 0 0 0 0 0 0 0 0 0 0 0 0 0 0 0 0 0 0 0 0 0 0 0 0 0 0 0 0 0
0 0 0 0 0 0 0 0 0 0 0 0 0 0 0 0 0 0 0 0 0 0 0 0 0 0 0 0 0 0 0 0 0 0 0 0 0 0 0 0 0 0 0
0 0 0 0 0 0 0 0 0 0 0 0 0 0 0 0 0 0 0 0 0 0 0 0 0 0 0 0 0 0 0 0 0 0 0 0 0 0 0 0 0 0 0
0 0 0 0 0 0 0 0 0 0 0 0 0 0 0 0 0 0 0 0 0 0 0 0 0 0 0 0 0 0 0 0 0 0 0 0 0 0 0 0 0 0 0
0 0 0 0 0 0 0 0 0 0 0 0 0 0 0 0 0 0 0 0 0 0 0 0 0 0 0 0 0 0 0 0 0 0 0 0 0 0 0 0 0 0 0
0 0 0 0 0 0 0 0 0 0 0 0 0 0 0 0 0 0 0 0 0 0 0 0 0 0 0 0 0 0 0 0 0 0 0 0 0 0 0 0 0 0 0
0 0 0 0 0 0 0 0 0 0 0 0 0 0 0 0 0 0 0 0 0 0 0 0 0 0 0 0 0 0 0 0 0 0 0 0 0 0 0 0 0 0 0
0 0 0 0 0 0 0 0 0 0 0 0 0 0 0 0 0 0 0 0 0 0 0 0 0 0 0 0 0 0 0 0 0 0 0 0 0 0 0 0 0 0 0
0 0 0 0 0 0 0 0 0 0 0 0 0 0 0 0 0 0 0 0 0 0 0 0 0 0 0 0 0 0 0 0 0 0 0 0 0 0 0 0 0 0 0
0 0 0 0 0 0 0 0 0 0 0 0 0 0 0 0 0 0 0 0 0 0 0 0 0 0 0 0 0 0 0 0 0 0 0 0 0 0 0 0 0 0 0
0 0 0 0 0 0 0 0 0 0 0 0 0 0 0 0 0 0 0 0 0 0 0 0 0 0 0 0 0 0 0 0 0 0 0 0 0 0 0 0 0 0 0
0 0 0 0 0 0 0 0 0 0 0 0 0 0 0 0 0 0 0 0 0 0 0 0 0 0 0 0 0 0 0 0 0 0 0 0 0 0 0 0 0 0 0
0 0 0 0 0 0 0 0 0 0 0 0 0 0 0 0 0 0 0 0 0 0 0 0 0 0 0 0 0 0 0 0 0 0 0 0 0 0 0 0 0 0 0
0 0 0 0 0 0 0 0 0 0 0 0 0 0 0 0 0 0 0 0 0 0 0 0 0 0 0 0 0 0 0 0 0 0 0 0 0 0 0 0 0 0 0
0 0 0 0 0 0 0 0 0 0 0 0 0 0 0 0 0 0 0 0 0 0 0 0 0 0 0 0 0 0 0 0 0 0 0 0 0 0 0 0 0 0 0
0 0 0 0 0 0 0 0 0 0 0 0 0 0 0 0 0 0 0 0 0 0 0 0 0 0 0 0 0 0 0 0 0 0 0 0 0 0 0 0 0 0 0
0 0 0 0 0 0 0 0 0 0 0 0 0 0 0 0 0 0 0 0 0 0 0 0 0 0 0 0 0 0 0 0 0 0 0 0 0 0 0 0 0 0 0
0 0 0 0 0 0 0 0 0 0 0 0 0 0 0 0 0 0 0 0 0 0 0 0 0 0 0 0 0 0 0 0 0 0 0 0 0 0 0 0 0 0 0
0 0 0 0 0 0 0 0 0 0 0 0 0 0 0 0 0 0 0 0 0 0 0 0 0 0 0 0 0 0 0 0 0 0 0 0 0 0 0 0 0 0 0
0 0 0 0 0 0 0 0 0 0 0 0 0 0 0 0 0 0 0 0 0 0 0 0 0 0 0 0 0 0 0 0 0 0 0 0 0 0 0 0 0 0 0
0 0 0 0 0 0 0 0 0 0 0 0 0 0 0 0 0 0 0 0 0 0 0 0 0 0 0 0 0 0 0 0 0 0 0 0 0 0 0 0 0 0 0
0 0 0 0 0 0 0 0 0 0 0 0 0 0 0 0 0 0 0 0 0 0 0 0 0 0 0 0 0 0 0 0 0 0 0 0 0 0 0 0 0 0 0
0 0 0 0 0 0 0 0 0 0 0 0 0 0 0 0 0 0 0 0 0 0 0 0 0 0 0 0 0 0 0 0 0 0 0 0 0 0 0 0 0 0 0
Wind_Speed
2 2 1 1 1 1 1 1 1 1 1 1 1 1 1 1 1 1 0 1 2 2 3 4 5 6 5 6 7 7 7 8 8 8 9 9 8 8 8 7 7 7 7
2 2 1 1 1 1 1 1 1 2 1 1 1 1 1 0 0 0 0 0 1 2 3 4 4 5 5 5 6 6 6 7 8 9 9 9 8 8 8 8 7 7 7
2 2 2 1 1 1 2 1 1 1 1 1 1 0 0 1 1 1 1 0 1 2 3 3 3 4 4 4 4 5 6 6 7 9 9 8 8 8 8 7 7 7 7
2 2 2 1 1 2 2 2 1 1 1 1 1 0 0 0 1 1 1 1 1 1 2 3 4 4 4 4 4 5 5 4 6 8 8 8 8 8 8 7 7 7 8
2 2 2 1 2 2 2 2 1 2 1 1 1 0 0 0 1 1 1 1 1 2 2 2 3 3 4 4 3 4 4 4 5 7 7 7 8 8 7 7 7 7 8
2 2 2 2 2 2 1 1 1 1 1 1 0 1 1 1 0 1 2 2 2 2 2 2 2 3 4 4 4 4 4 5 5 5 6 7 7 8 8 7 7 7 8
2 2 2 2 2 2 2 2 2 2 1 1 1 1 1 1 1 1 1 1 2 2 2 2 2 2 2 3 4 4 4 5 4 5 6 7 8 8 8 8 8 7 8
2 2 3 3 3 3 3 2 2 2 1 1 2 1 1 2 2 1 1 1 2 2 1 1 1 1 2 1 2 4 5 5 5 5 6 6 8 8 8 8 8 8 8
2 2 3 3 3 3 3 3 3 3 1 1 1 2 2 1 2 2 1 1 1 1 2 1 1 2 2 2 2 3 5 5 5 5 5 6 6 7 8 9 9 8 8
1 2 3 3 3 3 3 3 3 2 3 2 1 1 1 2 1 1 2 2 1 1 2 2 2 2 2 2 2 3 3 4 5 6 6 6 6 6 7 8 8 9 9
0 1 2 2 2 2 2 2 2 3 2 2 2 1 1 1 1 1 2 2 2 1 1 2 2 2 2 2 2 2 2 2 3 4 4 5 4 5 5 5 7 7 7
0 1 2 2 2 2 2 2 2 3 2 2 2 2 2 2 2 2 3 2 2 2 2 1 2 2 1 2 2 2 2 2 2 2 3 3 4 4 4 5 6 6 6
2 2 2 2 2 2 2 2 2 2 2 2 3 2 2 2 2 2 2 2 2 2 2 1 2 2 1 1 2 2 2 2 2 2 2 2 3 3 3 4 5 6 6
3 3 3 2 2 2 2 2 2 2 2 2 3 3 2 2 2 3 3 2 1 2 2 3 1 2 2 1 2 2 2 2 2 2 3 2 3 3 3 3 4 5 5
3 3 3 3 2 2 2 2 2 2 2 2 2 2 2 2 2 2 2 3 3 2 2 2 2 2 2 1 1 1 1 2 2 3 3 3 3 3 3 3 3 4 4
2 3 3 3 2 2 2 2 2 1 2 2 1 1 1 1 1 2 2 2 2 3 3 2 2 2 2 1 1 1 1 2 2 2 2 3 3 3 3 3 3 3 3
3 3 3 3 2 2 2 2 2 2 2 2 1 2 2 1 1 1 1 1 2 2 2 2 1 1 1 1 2 1 1 1 1 2 2 3 3 3 3 3 3 3 3
2 3 3 3 3 2 2 3 3 2 3 3 2 2 2 1 1 1 1 2 2 2 2 2 1 1 1 1 1 2 2 2 2 2 3 3 3 4 3 3 4 4 4
3 2 3 3 3 3 3 3 3 3 3 3 3 3 3 2 2 1 2 2 2 2 2 2 1 1 1 1 1 2 2 2 2 2 3 3 4 4 4 4 5 5 5
3 3 3 3 3 3 4 4 3 3 3 3 3 4 3 4 3 3 2 2 2 2 1 1 1 1 1 1 1 1 2 2 3 2 2 2 3 4 5 5 5 6 6
4 4 3 3 3 3 4 4 4 4 4 3 3 3 3 4 4 3 2 3 3 2 2 2 1 1 1 1 1 1 2 2 2 1 2 2 2 2 3 3 4 5 6
3 3 3 4 4 4 4 4 4 4 4 4 4 3 3 3 4 4 4 4 4 4 3 2 2 2 3 2 2 1 1 2 2 1 1 2 1 2 3 2 3 4 5
3 3 4 4 4 5 5 4 4 3 3 4 4 3 3 3 3 3 3 3 4 4 5 4 4 4 3 3 2 2 2 3 3 2 1 2 2 3 3 3 4 3 3
3 3 4 4 4 4 4 4 4 3 3 3 4 4 4 3 4 4 3 3 3 3 4 4 4 4 4 3 4 3 3 2 2 2 1 2 2 3 3 3 4 4 4
3 3 3 4 4 4 4 4 3 2 2 3 4 4 4 4 5 4 4 4 3 3 3 3 4 3 3 3 2 2 1 1 2 2 1 2 2 2 3 3 2 3 4
4 3 3 3 4 4 4 4 4 2 2 3 2 3 4 5 4 5 4 5 5 4 2 2 2 2 2 3 3 3 3 3 2 2 2 2 2 1 2 2 2 2 2
Wind_Direction
143 136 132 125 122 108 114 112 110 107 106 104 121 128 142 169 204 214 261 197 187 203 221 227 223 223 222 218 219 220 216 210 205 202 200 199 200 199 197 193 196 196 195
149 144 141 138 135 135 138 131 136 131 122 119 117 132 166 206 218 221 258 274 241 243 248 245 241 238 236 229 223 219 219 220 215 207 203 203 202 202 202 202 204 202 198
153 152 146 159 167 149 139 125 119 116 127 116 115 148 185 239 255 253 263 295 290 261 249 247 248 246 245 242 235 229 222 225 217 209 204 202 201 201 204 204 206 204 201
164 157 155 180 167 143 140 142 142 118 109 106 92 13 342 309 306 305 309 298 292 291 277 262 259 258 258 257 246 234 228 229 211 204 198 198 200 205 208 208 209 209 206
174 167 171 179 154 138 141 161 133 136 129 120 121 56 318 306 309 315 302 283 264 272 278 276 274 272 268 266 261 241 236 231 214 206 200 199 202 207 210 209 209 211 211
177 171 175 176 157 141 140 147 139 120 126 132 87 12 349 275 266 274 283 287 283 273 272 277 281 276 272 273 266 242 236 234 228 221 211 205 210 213 213 212 213 214 217
181 171 171 159 159 159 167 159 146 138 121 115 89 8 349 329 273 266 280 290 298 287 273 264 271 273 279 277 270 257 241 239 228 223 215 213 215 217 218 217 218 217 219
178 175 169 168 166 159 154 158 150 151 155 139 136 101 351 349 346 337 316 290 298 298 294 287 284 276 279 281 287 274 264 251 244 233 226 222 223 222 224 223 223 221 218
176 166 164 162 164 165 172 176 166 158 165 162 147 151 151 240 314 330 319 301 307 305 299 293 296 290 277 272 277 277 268 254 249 246 243 239 234 227 225 226 224 223 220
167 160 159 160 162 164 169 182 171 171 161 180 185 185 172 163 176 315 323 322 332 323 318 312 306 292 284 274 272 278 268 256 252 254 255 253 248 238 229 228 228 225 225
149 151 154 153 163 171 174 177 171 174 179 180 177 162 160 161 179 203 282 315 330 312 309 302 299 297 292 282 270 276 269 267 263 262 261 254 247 240 230 228 233 232 232
206 185 165 163 171 182 185 188 185 179 187 182 183 176 172 182 196 198 233 267 292 298 295 291 294 293 290 292 286 286 255 249 255 264 266 260 252 242 231 238 245 244 242
213 214 197 184 182 196 200 189 188 190 192 190 202 205 200 211 188 187 203 241 270 289 295 290 282 291 292 292 289 288 264 254 253 258 264 265 257 250 240 249 257 255 246
214 201 192 189 187 188 194 189 197 207 198 210 219 213 208 217 197 195 194 194 245 283 284 283 294 280 284 280 293 281 284 275 257 246 250 262 264 251 245 248 254 258 255
208 194 191 189 189 186 190 181 198 209 192 211 221 214 217 227 211 209 199 193 196 245 275 277 282 294 295 279 297 289 278 292 275 257 250 258 261 249 239 242 250 259 255
212 194 202 195 192 190 192 191 200 204 184 210 206 189 218 232 221 207 200 200 202 210 243 266 265 290 307 329 3 309 286 302 285 272 261 263 259 255 245 240 250 255 256
203 197 196 188 190 200 195 191 206 194 192 207 208 198 223 217 210 200 183 182 191 189 219 269 282 299 293 326 340 335 313 291 299 282 273 269 265 259 250 245 243 248 255
194 190 180 180 190 201 195 197 208 203 200 206 212 204 223 200 195 201 184 194 199 197 200 245 280 293 284 311 319 316 325 315 288 290 275 271 271 267 254 240 238 241 251
199 190 177 180 197 211 204 203 204 209 208 212 209 204 212 187 193 197 194 197 206 199 192 205 254 271 287 316 330 324 324 317 303 293 274 269 265 262 257 248 243 239 242
205 205 200 197 205 213 211 206 201 209 213 215 214 211 208 203 203 201 200 204 194 186 175 183 230 273 286 311 305 318 318 320 308 305 299 284 270 260 261 264 256 249 243
216 209 203 208 214 216 219 212 210 212 211 213 219 220 214 209 201 198 200 201 190 186 182 195 219 251 265 290 287 287 292 303 294 292 305 298 290 285 279 269 260 253 250
216 205 211 217 224 229 228 209 203 208 205 209 219 227 226 220 213 211 212 202 191 191 198 205 221 236 248 245 246 259 269 289 291 293 288 298 293 284 283 279 285 268 247
212 217 226 224 230 237 228 218 207 200 204 214 218 223 232 224 209 215 221 214 215 218 204 202 219 235 238 227 222 244 251 256 259 281 263 286 287 283 283 285 279 263 251
211 221 229 228 231 241 228 220 211 205 210 223 225 222 224 232 224 212 213 218 229 231 224 219 224 234 237 228 220 228 236 255 275 272 229 269 285 287 296 283 267 255 257
214 220 223 223 224 237 221 209 191 201 223 240 242 232 223 229 231 210 203 215 235 253 240 225 229 241 244 237 216 194 206 237 286 285 222 247 275 295 295 285 280 270 262
219 219 224 224 222 233 227 211 191 195 225 246 252 245 236 232 229 207 207 211 228 244 245 251 255 276 264 252 224 215 215 222 253 273 224 220 249 289 297 289 304 304 281